[[{"header":{"parameterUnit":"m.s-1","parameterCategory":1,"la1":30.2991,"la2":30.254,"lo1":-89.0895,"lo2":-89.0444,"dy":0.0017,"dx":0.0017,"nx":28,"ny":28,"refTime":"2024-10-17T03:00:00:Z","depth":0,"parameterNumber":2,"parameterNumberName":"U-component_of_WINDS"},"data":[0,0,0,0,0,0,0,0,0,0,0,0,0,0,0,0,0,0,0,0,0,0,0,0,0,0,0,0,0,0,0,0,0,0,0,0,0,0,0,0,0,0,0,0,0,0,0,0,0,0,0,0,0,0,0,0,0,0,-3.7187,-3.7188,0,-3.7206,-3.7206,-3.7206,-3.7083,-3.7079,-3.7076,-3.7072,-3.709,-3.7094,-3.7098,0,0,0,0,0,0,0,0,0,0,0,0,0,-3.7044,-3.7048,-3.7187,-3.7188,-3.7188,-3.7206,-3.7206,-3.7206,-3.7083,-3.7079,-3.7075,-3.7071,-3.7089,-3.7094,-3.7098,0,0,0,0,0,0,0,0,0,0,0,0,0,-3.7089,-3.7049,-3.7187,-3.7129,-3.7124,-3.7206,-3.7206,-3.7206,-3.7084,-3.7079,-3.7074,-3.7069,-3.7088,-3.7093,-3.7099,-3.7238,0,0,-3.7116,-3.7118,0,0,0,0,0,0,0,0,-3.7087,-3.7094,-3.7137,-3.7133,-3.7127,-3.7136,-3.7162,-3.7217,-3.7085,-3.7099,-3.7072,-3.7066,-3.711,-3.7113,-3.7128,-3.7239,-3.7239,-3.7116,-3.712,-3.7122,-3.7124,0,0,0,0,0,0,0,-3.7084,-3.7093,-3.7194,-3.7138,-3.7132,-3.7101,-3.7101,-3.7172,-3.7134,-3.7097,-3.7089,-3.7092,-3.7106,-3.7123,-3.7128,-3.724,-3.7116,-3.7121,-3.7125,-3.7127,-3.7463,-3.7469,0,0,0,0,0,0,-3.7089,-3.7091,-3.7194,-3.7195,-3.7094,-3.7108,-3.7108,-3.7139,-3.7132,-3.7126,-3.7097,-3.7087,-3.7116,-3.7121,-3.7128,-3.7289,-3.7122,-3.7127,-3.713,-3.7458,-3.7465,-3.7471,0,0,0,0,0,0,-3.7086,-3.7099,-3.7193,-3.7141,-3.715,-3.7116,-3.7151,-3.7142,-3.7159,-3.7132,-3.7124,-3.7121,-3.7112,-3.712,-3.7211,-3.7288,-3.713,-3.7135,-3.7451,-3.746,-3.7468,-3.7614,0,0,0,0,0,0,-3.7083,-3.7099,-3.7152,-3.7143,-3.7154,-3.7277,-3.7156,-3.7146,-3.7169,-3.7155,-3.7153,-3.7147,-3.7109,-3.7203,-3.7217,-3.7293,-3.7139,-3.7444,-3.7455,-3.7465,-3.7602,-3.7627,-3.7647,0,0,0,0,0,-3.7078,-3.7192,-3.7155,-3.7168,-3.7219,-3.7282,-3.7288,-3.7241,-3.7175,-3.7228,-3.7211,-3.7147,-3.7278,-3.7214,-3.7228,-3.7307,-3.7439,-3.7452,-3.7464,-3.7592,-3.7622,-3.7647,0,0,0,0,0,0,-3.7211,-3.719,-3.7149,-3.7264,-3.7276,-3.7261,-3.7326,-3.7274,-3.7304,-3.7291,-3.7231,-3.7232,-3.7333,-3.7329,-3.7258,-3.744,-3.7347,-3.7363,-3.7439,-3.7467,-3.7489,-3.7488,-3.7144,0,0,0,0,0,-3.7254,-3.7307,-3.7286,-3.7389,-3.7397,-3.7361,-3.7386,-3.7349,-3.7359,-3.7363,-3.7352,-3.7364,-3.7407,-3.7437,-3.7475,-3.7601,-3.7598,-3.7662,-3.7685,-3.7704,-3.7718,-3.7783,-3.7811,-3.7512,-3.7512,-3.7512,0,0,-3.7343,-3.7338,-3.7375,-3.7416,-3.7421,-3.7476,-3.7366,-3.743,-3.747,-3.7373,-3.7458,-3.7451,-3.7459,-3.7568,-3.7616,-3.7568,-3.78,-3.772,-3.7735,-3.7739,-3.7799,-3.7828,-3.7853,-3.7521,-3.7519,-3.7518,0,0,-3.7534,-3.7536,-3.7622,-3.7629,-3.7637,-3.7612,-3.7633,-3.7626,-3.7617,-3.7702,-3.763,-3.7677,-3.7753,-3.7762,-3.7776,-3.797,-3.7913,-3.7984,-3.8102,-3.8166,-3.819,-3.821,-3.8279,-3.8304,-3.7998,-3.7999,-3.7999,0,-3.7644,-3.7725,-3.7673,-3.7741,-3.7761,-3.7675,-3.7762,-3.7771,-3.7792,-3.7807,-3.7753,-3.7846,-3.7846,-3.7955,-3.8003,-3.8018,-3.8039,-3.7984,-3.819,-3.8211,-3.8229,-3.8294,-3.832,-3.8007,-3.8006,-3.8006,-3.8005,0,-3.7859,-3.7916,-3.7985,-3.8007,-3.8034,-3.8112,-3.807,-3.8104,-3.8065,-3.8045,-3.8132,-3.8129,-3.8165,-3.8188,-3.815,-3.8292,-3.8262,-3.8201,-3.8105,-3.8267,-3.8327,-3.8351,-3.802,-3.8017,-3.8014,-3.8012,0,0,-3.8135,-3.8126,-3.8153,-3.8161,-3.8164,-3.8207,-3.828,-3.8315,-3.8345,-3.8362,-3.8421,-3.8487,-3.843,-3.8446,-3.8409,-3.8465,-3.8618,-3.8396,-3.8396,-3.8437,-3.8773,-3.8819,-3.8849,-3.858,-3.8584,-3.8588,-3.8772,0,-3.8321,-3.8445,-3.84,-3.8527,-3.8579,-3.8498,-3.8561,-3.8569,-3.8553,-3.8594,-3.8575,-3.8623,-3.8544,-3.8553,-3.8606,-3.8588,-3.8684,-3.8574,-3.8634,-3.8637,-3.8634,-3.888,-3.8929,-3.9103,-3.8795,-3.8799,-3.8802,0,-3.8554,-3.858,-3.8713,-3.8705,-3.8725,-3.8783,-3.8811,-3.8852,-3.8859,-3.8843,-3.8862,-3.8811,-3.8882,-3.8787,-3.8882,-3.8809,-3.883,-3.8825,-3.8831,-3.8834,-3.8729,-3.889,-3.9158,-3.9184,-3.8838,-3.8835,-3.8833,0,-3.8742,-3.881,-3.8898,-3.8907,-3.8901,-3.8944,-3.8943,-3.8945,-3.8969,-3.8993,-3.9008,-3.9041,-3.9058,-3.9084,-3.9044,-3.8979,-3.9146,-3.9047,-3.9134,-3.9135,-3.9173,-3.9171,-3.9447,-3.9187,-3.9187,-3.9186,-3.9186,0,-3.8954,-3.9038,-3.8982,-3.9036,-3.9127,-3.9074,-3.9166,-3.9156,-3.9158,-3.9209,-3.9141,-3.9189,-3.9133,-3.9176,-3.9145,-3.9229,-3.9237,-3.9226,-3.9217,-3.9232,-3.9234,-3.9245,-3.9232,-3.9193,-3.9192,-3.919,-3.9189,0,-3.9179,-3.9145,-3.9235,-3.9221,-3.922,-3.9288,-3.9276,-3.9325,-3.9303,-3.9368,-3.938,-3.9346,-3.9393,-3.9355,-3.9402,-3.938,-3.9491,-3.9465,-3.9489,-3.9482,-3.957,-3.9562,-3.9864,-3.99,-3.9617,-3.962,-3.9622,0,-3.9316,-3.9379,-3.9372,-3.9401,-3.9405,-3.9452,-3.9475,-3.9425,-3.9453,-3.9465,-3.9513,-3.9554,-3.9584,-3.9664,-3.9643,-3.9678,-3.9651,-3.9755,-3.9656,-3.967,-3.9653,-3.9649,-3.9655,-3.9775,-3.9778,-3.9781,-3.9783,0,-3.9564,-3.9544,-3.9581,-3.9612,-3.9642,-3.9664,-3.9681,-3.9708,-3.9657,-3.9691,-3.9738,-3.9762,-3.9808,-3.985,-3.9878,-3.9876,-3.9822,-3.9814,-3.9836,-3.9852,-3.9864,-3.9858,-3.9543,-3.9808,-3.9805,-3.9803,-3.9802,-3.9801,-3.9749,-3.9801,-3.9804,-3.9847,-3.9854,-3.9871,-3.9916,-3.99,-3.9939,-3.9973,-3.994,-3.9998,-4.0002,-4.0033,-4.0039,-4.0082,-4.004,-4.0071,-4.0079,-4.0088,-4.01,-3.9857,-4.0087,-4.0086,-4.0086,-4.0085,-4.0085,0,-3.9993,-3.9991,-4.0031,-4.0056,-4.009,-4.0035,-4.005,-4.0082,-4.0133,-4.0142,-4.0173,-4.0227,-4.0267,-4.025,-4.0284,-4.0323,-4.0298,-4.0334,-4.033,-4.0331,-4.0137,-4.0114,-4.0353,-4.0353,-4.0353,-4.0352,-4.0352,-4.0352,-4.0124,-4.0208,-4.0188,-4.0275,-4.0272,-4.0327,-4.034,-4.0355,-4.0362,-4.0426,-4.0458,-4.0446,-4.0445,-4.0478,-4.0513,-4.0506,-4.0522,-4.0567,-4.0552,-4.0371,-4.0344,-4.0319,-4.0298,-4.0571,-4.0571,-4.0741,-4.0743,-4.0744]},{"header":{"parameterUnit":"m.s-1","parameterCategory":1,"la1":30.2991,"la2":30.254,"lo1":-89.0895,"lo2":-89.0444,"dy":0.0017,"dx":0.0017,"nx":28,"ny":28,"refTime":"2024-10-17T03:00:00:Z","depth":0,"parameterNumber":3,"parameterNumberName":"V-component_of_WINDS"},"data":[0,0,0,0,0,0,0,0,0,0,0,0,0,0,0,0,0,0,0,0,0,0,0,0,0,0,0,0,0,0,0,0,0,0,0,0,0,0,0,0,0,0,0,0,0,0,0,0,0,0,0,0,0,0,0,0,0,0,-1.9418,-1.9419,0,-1.9506,-1.9507,-1.9508,-1.9523,-1.9522,-1.9522,-1.9521,-1.9609,-1.9612,-1.9615,0,0,0,0,0,0,0,0,0,0,0,0,0,-1.9257,-1.926,-1.9417,-1.9419,-1.942,-1.9506,-1.9507,-1.9509,-1.9523,-1.9522,-1.9522,-1.9521,-1.9608,-1.9612,-1.9615,0,0,0,0,0,0,0,0,0,0,0,0,0,-1.9334,-1.9261,-1.9417,-1.9438,-1.944,-1.9506,-1.9507,-1.9509,-1.9524,-1.9522,-1.9521,-1.952,-1.9607,-1.9611,-1.9616,-1.9667,0,0,-1.963,-1.9632,0,0,0,0,0,0,0,0,-1.933,-1.934,-1.9433,-1.9436,-1.9439,-1.9503,-1.9483,-1.9562,-1.9524,-1.9492,-1.9521,-1.952,-1.9574,-1.9582,-1.9601,-1.9671,-1.9674,-1.963,-1.9633,-1.9635,-1.9636,0,0,0,0,0,0,0,-1.9325,-1.9336,-1.9453,-1.9435,-1.9438,-1.9441,-1.9451,-1.9498,-1.9538,-1.9495,-1.9496,-1.9506,-1.9576,-1.9596,-1.9603,-1.9676,-1.963,-1.9634,-1.9637,-1.9639,-1.979,-1.9792,0,0,0,0,0,0,-1.9316,-1.9332,-1.945,-1.9455,-1.9381,-1.9445,-1.9456,-1.9483,-1.9538,-1.9545,-1.9507,-1.9507,-1.9589,-1.9597,-1.9606,-1.9668,-1.9635,-1.9639,-1.9642,-1.9789,-1.9791,-1.9792,0,0,0,0,0,0,-1.9312,-1.9326,-1.9446,-1.9394,-1.9409,-1.9449,-1.948,-1.9486,-1.9506,-1.9547,-1.9554,-1.9521,-1.9588,-1.9599,-1.9651,-1.9671,-1.9641,-1.9645,-1.9787,-1.9789,-1.9791,-1.9793,0,0,0,0,0,0,-1.9308,-1.9325,-1.9346,-1.9394,-1.9412,-1.9491,-1.9481,-1.9488,-1.9514,-1.9515,-1.9562,-1.9569,-1.9588,-1.9644,-1.9656,-1.9677,-1.9649,-1.9786,-1.9788,-1.9791,-1.9791,-1.9795,-1.9798,0,0,0,0,0,-1.9302,-1.9342,-1.9347,-1.9361,-1.9439,-1.9492,-1.9502,-1.9525,-1.9516,-1.9536,-1.9562,-1.9567,-1.9667,-1.965,-1.9663,-1.9685,-1.9785,-1.9788,-1.979,-1.979,-1.9794,-1.9798,0,0,0,0,0,0,-1.9294,-1.9349,-1.9355,-1.9412,-1.9447,-1.9495,-1.9521,-1.9529,-1.9567,-1.9565,-1.959,-1.9601,-1.9651,-1.9673,-1.9653,-1.9737,-1.9725,-1.9731,-1.972,-1.9725,-1.9728,-1.9721,-1.9653,0,0,0,0,0,-1.9299,-1.9339,-1.9385,-1.9431,-1.9448,-1.9482,-1.9506,-1.952,-1.9557,-1.9572,-1.9602,-1.9637,-1.9676,-1.9702,-1.974,-1.9795,-1.9804,-1.9817,-1.982,-1.9822,-1.9827,-1.9856,-1.9861,-1.9801,-1.9801,-1.9801,0,0,-1.931,-1.9345,-1.9369,-1.943,-1.9459,-1.9499,-1.9494,-1.9536,-1.9565,-1.9578,-1.9629,-1.9652,-1.9693,-1.9746,-1.9771,-1.9766,-1.9845,-1.9826,-1.9828,-1.9831,-1.9859,-1.9865,-1.987,-1.9803,-1.9803,-1.9803,0,0,-1.935,-1.9381,-1.9422,-1.9451,-1.9496,-1.9517,-1.9527,-1.9573,-1.9589,-1.9641,-1.9651,-1.9685,-1.9753,-1.9781,-1.9804,-1.9853,-1.9858,-1.9865,-1.9881,-1.9909,-1.9914,-1.9918,-1.9935,-1.9941,-1.9869,-1.9869,-1.9869,0,-1.9357,-1.9419,-1.9442,-1.9484,-1.951,-1.9524,-1.9565,-1.9592,-1.9646,-1.9663,-1.9657,-1.9742,-1.977,-1.9829,-1.9841,-1.986,-1.9871,-1.9859,-1.9912,-1.9916,-1.9921,-1.9937,-1.9943,-1.987,-1.9869,-1.9869,-1.9869,0,-1.9425,-1.9467,-1.9495,-1.9547,-1.9577,-1.9618,-1.9647,-1.9673,-1.9684,-1.9706,-1.9757,-1.9792,-1.9837,-1.9852,-1.9863,-1.9913,-1.9908,-1.9907,-1.9896,-1.9926,-1.9942,-1.9948,-1.987,-1.987,-1.987,-1.987,0,0,-1.9463,-1.9528,-1.9537,-1.9561,-1.961,-1.9642,-1.9683,-1.9728,-1.975,-1.9786,-1.9821,-1.9877,-1.9875,-1.9902,-1.9916,-1.9941,-1.9976,-1.9936,-1.9937,-1.9942,-2.0031,-2.0032,-2.0038,-1.998,-1.9981,-1.9982,-2.0027,0,-1.9508,-1.9583,-1.9605,-1.9667,-1.9705,-1.9719,-1.9754,-1.9787,-1.9808,-1.9843,-1.9866,-1.9905,-1.9901,-1.9916,-1.9942,-1.9967,-1.9994,-1.9964,-2.0011,-2.0012,-2.0,-2.0047,-2.0048,-2.0089,-2.0034,-2.0035,-2.0036,0,-1.9571,-1.9609,-1.9675,-1.9719,-1.9735,-1.9767,-1.9809,-1.9843,-1.988,-1.9893,-1.9922,-1.9934,-1.9976,-1.9963,-2.002,-1.9999,-2.0019,-2.0034,-2.0036,-2.0041,-2.0026,-2.0052,-2.0103,-2.0108,-2.0045,-2.0045,-2.0044,0,-1.9591,-1.9659,-1.9707,-1.9727,-1.9779,-1.98,-1.9823,-1.9859,-1.9884,-1.9921,-1.9937,-1.9977,-1.9999,-2.003,-2.0052,-2.0041,-2.0107,-2.0096,-2.0119,-2.0118,-2.0132,-2.0131,-2.0185,-2.0146,-2.0146,-2.0146,-2.0145,0,-1.9639,-1.9678,-1.9716,-1.9746,-1.979,-1.9815,-1.9858,-1.988,-1.9912,-1.9946,-1.9959,-1.999,-2.0017,-2.0051,-2.0069,-2.0113,-2.0123,-2.0134,-2.0138,-2.0133,-2.0131,-2.0146,-2.0144,-2.0147,-2.0147,-2.0147,-2.0146,0,-1.9669,-1.9696,-1.9749,-1.9794,-1.9806,-1.9837,-1.9874,-1.9903,-1.9924,-1.9966,-1.9977,-2.001,-2.005,-2.0076,-2.0127,-2.0139,-2.0187,-2.019,-2.0174,-2.0176,-2.0197,-2.0195,-2.0263,-2.0273,-2.0227,-2.0228,-2.0228,0,-1.9697,-1.9728,-1.9776,-1.98,-1.9823,-1.986,-1.9886,-1.991,-1.9936,-1.9981,-2.0003,-2.0045,-2.0079,-2.0143,-2.0171,-2.021,-2.0214,-2.0236,-2.022,-2.0213,-2.0214,-2.0211,-2.0214,-2.0238,-2.0238,-2.0239,-2.0239,0,-1.9745,-1.9756,-1.9794,-1.9835,-1.9865,-1.9899,-1.9932,-1.995,-1.998,-2.0008,-2.005,-2.0077,-2.013,-2.017,-2.0211,-2.0233,-2.0241,-2.0244,-2.0251,-2.0245,-2.0235,-2.024,-2.0181,-2.0242,-2.0242,-2.0241,-2.0241,-2.0241,-1.9775,-1.9802,-1.984,-1.988,-1.9908,-1.9939,-1.9967,-1.9992,-2.0028,-2.0073,-2.0085,-2.0128,-2.0163,-2.022,-2.0242,-2.0276,-2.0273,-2.0283,-2.0286,-2.0288,-2.0288,-2.023,-2.0284,-2.0284,-2.0283,-2.0283,-2.0283,0,-1.9822,-1.9847,-1.9884,-1.993,-1.9962,-1.9966,-2.0003,-2.0029,-2.0067,-2.01,-2.0133,-2.0181,-2.022,-2.0251,-2.0291,-2.0312,-2.0316,-2.0321,-2.032,-2.0324,-2.0289,-2.0279,-2.0317,-2.0317,-2.0317,-2.0317,-2.0317,-2.0317,-1.9851,-1.9897,-1.9913,-1.9973,-1.9997,-2.0041,-2.0061,-2.0089,-2.0115,-2.0168,-2.02,-2.022,-2.0252,-2.0294,-2.033,-2.0338,-2.0351,-2.0356,-2.0364,-2.0331,-2.0327,-2.0323,-2.0314,-2.0359,-2.0359,-2.0397,-2.0397,-2.0397]}]]